CW0449 Weather Reports


time (UTC)temp
F
wind
direction
speed
knots
gust
knots
rain 1hr
in
rain 24hr
in
rain mn
in
humidity
%
barometer
mb
20260503020907 56 166 2.6 6.1 0.00 0.29 0.29 93 1010.2
20260503000908 56 142 1.7 5.2 0.01 0.29 0.29 92 1010.7
20260503000408 56 145 1.7 10.4 0.01 0.29 0.29 92 1010.8
20260502230406 57 118 4.3 11.3 0.28 0.28 0.28 92 1011.0
20260502220906 59 118 1.7 5.2 0.01 0.01 0.01 86 1013.2
20260502220406 59 113 5.2 12.2 0.00 0.00 0.00 86 1013.3
20260502214906 58 190 4.3 12.2 0.00 0.00 0.00 90 1013.9
20260502210907 58 21 1.7 6.1 0.00 0.00 0.00 86 1012.0
20260502210407 58 15 2.6 7.0 0.00 0.00 0.00 85 1012.0
20260502190906 61 347 0.9 2.6 0.00 0.00 0.00 67 1012.9
20260502190406 61 347 2.6 7.0 0.00 0.00 0.00 66 1012.9
20260502180906 66 317 2.6 5.2 0.00 0.00 0.00 56 1012.8
20260502180406 66 301 1.7 5.2 0.00 0.00 0.00 54 1012.9
20260502170406 69 337 2.6 6.1 0.00 0.00 0.00 51 1013.5
20260502160906 71 227 1.7 5.2 0.00 0.00 0.00 50 1014.1
20260502150906 73 290 2.6 5.2 0.00 0.00 0.00 53 1014.5
20260502150405 73 216 3.5 11.3 0.00 0.00 0.00 53 1014.6
20260502130405 73 257 2.6 11.3 0.00 0.00 0.00 65 1015.6
20260502120905 71 224 4.3 8.7 0.00 0.00 0.00 69 1016.0
20260502100904 70 243 3.5 7.0 0.00 0.00 0.00 70 1016.5
20260502070904 59 176 0.9 5.2 0.00 0.00 0.00 71 1016.8
20260502070404 59 177 2.6 7.0 0.00 0.00 0.00 71 1016.9
20260502060404 58 194 2.6 7.0 0.00 0.00 0.00 67 1016.8
20260502040404 55 163 1.7 5.2 0.00 0.00 0.00 65 1016.6
20260502030908 58 163 2.6 5.2 0.00 0.00 0.00 59 1016.9
20260502030407 58 173 5.2 7.8 0.00 0.00 0.00 59 1017.0